This demonstration page uses our WeatherBlox Daily Observations layout. Learn more.

Left ArrowRight Arrow

38.88101, -77.10428

Hourly Observations for February 4, 2021

Temp ( °F °C ) Dew Point ( °F °C ) Humidity (%) Winds ( mph kmh ) Pressure ( in mb ) Visibility ( mi km ) Precip ( " mm )
12:52 am 00:52 Clear 34 1.1 16 -8.9 48 48 NW 8 13 29.91 1013 10 16 0.00 0.00
1:52 am 01:52 Clear 33 0.6 15 -9.4 47 47 WNW 7 11 29.93 1013 10 16 0.00 0.00
2:52 am 02:52 Clear 32 0 15 -9.4 50 50 WNW 9 15 29.93 1014 10 16 0.00 0.00
3:52 am 03:52 Clear 32 0 15 -9.4 50 50 WNW 8 13 29.95 1014 10 16 0.00 0.00
4:52 am 04:52 Clear 32 0 14 -10 47 47 WNW 12 19 29.96 1015 10 16 0.00 0.00
5:52 am 05:52 Clear 31 -0.6 14 -10 49 49 WNW 9 15 29.98 1015 10 16 0.00 0.00
6:52 am 06:52 Clear 31 -0.6 13 -10.6 47 47 W 8 13 30.00 1016 10 16 0.00 0.00
7:52 am 07:52 Mostly Sunny 32 0 13 -10.6 45 45 WNW 8 13 30.03 1017 10 16 0.00 0.00
8:52 am 08:52 Mostly Sunny 34 1.1 14 -10 44 44 NW 7 11 30.04 1017 10 16 0.00 0.00
9:52 am 09:52 Partly Cloudy 37 2.8 14 -10 39 39 NW 9 15 30.04 1017 10 16 0.00 0.00
10:52 am 10:52 Partly Cloudy 40 4.4 14 -10 35 35 WNW 9 15 30.05 1018 10 16 0.00 0.00
11:52 am 11:52 Partly Cloudy 42 5.6 14 -10 32 32 WNW 10 17 30.02 1017 10 16 0.00 0.00
12:52 pm 12:52 Mostly Sunny 45 7.2 13 -10.6 27 27 NW 8 13 29.99 1016 10 16 0.00 0.00
1:52 pm 13:52 Mostly Sunny 47 8.3 12 -11.1 24 24 NNW 3 6 29.96 1015 10 16 0.00 0.00
2:52 pm 14:52 Mostly Sunny 49 9.4 12 -11.1 22 22 W 9 15 29.98 1015 10 16 0.00 0.00
3:52 pm 15:52 Partly Cloudy 50 10 10 -12.2 20 20 VRB 5 7 29.96 1015 10 16 0.00 0.00
4:52 pm 16:52 Mostly Cloudy 46 7.8 11 -11.7 24 24 NNW 3 6 29.96 1014 10 16 0.00 0.00
5:52 pm 17:52 Cloudy 43 6.1 15 -9.4 32 32 Calm 29.95 1014 10 16 0.00 0.00
6:52 pm 18:52 Cloudy 40 4.4 22 -5.6 49 49 E 3 6 29.95 1014 10 16 0.00 0.00
7:52 pm 19:52 Cloudy 40 4.4 19 -7.2 43 43 S 7 11 29.93 1014 10 16 0.00 0.00
8:52 pm 20:52 Cloudy 42 5.6 15 -9.4 33 33 S 5 7 29.92 1013 10 16 0.00 0.00
9:52 pm 21:52 Cloudy 41 5 20 -6.7 43 43 S 6 9 29.90 1013 10 16 0.00 0.00
10:52 pm 22:52 Cloudy 40 4.4 22 -5.6 49 49 S 8 13 29.87 1012 10 16 0.00 0.00
11:52 pm 23:52 Cloudy 42 5.6 20 -6.7 41 41 S 8 13 29.84 1011 10 16 0.00 0.00

Powered by AerisWeather